This demonstration page uses our WeatherBlox Daily Observations layout. Learn more.

40.92945, -100.16068

Hourly Observations for December 23, 2018

Temp ( °F °C ) Dew Point ( °F °C ) Humidity (%) Winds ( mph kmh ) Pressure ( in mb ) Visibility ( mi km ) Precip ( " mm )
12:15 am 00:15 Clear 25 -3.7 20 -6.5 81 81 W 5 7 30.39 1029 10 16.09344 0 0
12:35 am 00:35 Clear 25 -3.7 20 -6.7 80 80 W 6 9 30.39 1029 10 16.09344 0 0
12:55 am 00:55 Clear 22 -5.3 19 -7.5 85 85 W 5 7 30.39 1029 10 16.09344 0 0
1:15 am 01:15 Clear 23 -5.2 19 -7.5 84 84 WNW 7 11 30.39 1029 10 16.09344 0 0
1:35 am 01:35 Clear 23 -5 19 -7.5 83 83 WNW 7 11 30.39 1029 10 16.09344 0 0
1:55 am 01:55 Clear 24 -4.6 19 -7.5 80 80 WNW 5 7 30.39 1029 10 16.09344 0 0
2:15 am 02:15 Clear 23 -5.1 19 -7.5 83 83 WNW 6 9 30.39 1029 10 16.09344 0 0
2:35 am 02:35 Clear 22 -5.5 18 -8 83 83 WNW 5 7 30.39 1029 10 16.09344 0 0
2:55 am 02:55 Clear 23 -5 19 -7.4 83 83 W 6 9 30.39 1029 10 16.09344 0 0
3:15 am 03:15 Clear 22 -5.3 18 -7.6 84 84 WNW 6 9 30.39 1029 10 16.09344 0 0
3:35 am 03:35 Clear 21 -6.3 17 -8.5 85 85 WNW 6 9 30.42 1030 10 16.09344 0 0
3:55 am 03:55 Clear 20 -6.5 17 -8.5 86 86 W 7 11 30.42 1030 10 16.09344 0 0
4:15 am 04:15 Clear 21 -6.2 17 -8.1 87 87 W 3 6 30.42 1030 10 16.09344 0 0
4:35 am 04:35 Clear 19 -7 16 -9 86 86 NW 7 11 30.42 1030 10 16.09344 0 0
4:55 am 04:55 Clear 19 -7 16 -8.9 86 86 NW 5 7 30.42 1030 10 16.09344 0 0
5:15 am 05:15 Clear 19 -7 16 -9 86 86 NW 6 9 30.42 1030 10 16.09344 0 0
5:35 am 05:35 Clear 19 -7.1 15 -9.2 85 85 NW 6 9 30.42 1030 10 16.09344 0 0
5:55 am 05:55 Clear 19 -7 16 -9 86 86 WNW 6 9 30.42 1030 10 16.09344 0 0
6:15 am 06:15 Clear 19 -7.2 15 -9.3 85 85 WNW 5 7 30.42 1030 10 16.09344 0 0
6:35 am 06:35 Clear 19 -7.5 15 -9.5 86 86 WNW 5 7 30.42 1030 10 16.09344 0 0
6:55 am 06:55 Clear 18 -7.6 15 -9.5 86 86 WNW 5 7 30.42 1030 10 16.09344 0 0
7:15 am 07:15 Clear 19 -7.2 16 -9.1 86 86 NW 5 7 30.42 1030 10 16.09344 0 0
7:35 am 07:35 Clear 18 -7.6 15 -9.5 86 86 Calm 30.42 1030 10 16.09344 0 0
7:55 am 07:55 Clear 18 -7.6 15 -9.5 86 86 WNW 5 7 30.42 1030 10 16.09344 0 0
8:15 am 08:15 Sunny 18 -7.7 15 -9.5 87 87 NW 5 7 30.42 1030 10 16.09344 0 0
8:35 am 08:35 Sunny 19 -7.1 16 -8.9 87 87 NW 5 7 30.42 1030 10 16.09344 0 0
8:55 am 08:55 Sunny 22 -5.6 18 -7.6 86 86 NW 5 7 30.39 1029 10 16.09344 0 0
9:15 am 09:15 Sunny 24 -4.4 19 -7 82 82 WNW 7 11 30.39 1029 10 16.09344 0 0
9:35 am 09:35 Sunny 26 -3.2 21 -6 81 81 WNW 7 11 30.36 1028 10 16.09344 0 0
9:55 am 09:55 Sunny 29 -1.9 23 -5.2 78 78 WNW 8 13 30.36 1028 10 16.09344 0 0
10:15 am 10:15 Sunny 30 -1 23 -4.8 76 76 WNW 9 15 30.36 1028 10 16.09344 0 0
10:35 am 10:35 Sunny 32 0 24 -4.4 73 73 WNW 9 15 30.33 1027 10 16.09344 0 0
10:55 am 10:55 Sunny 34 0.9 25 -4.1 70 70 WNW 9 15 30.33 1027 10 16.09344 0 0
11:15 am 11:15 Sunny 35 1.6 24 -4.5 64 64 WNW 9 15 30.33 1027 10 16.09344 0 0
11:35 am 11:35 Sunny 37 2.6 25 -4 62 62 WNW 9 15 30.27 1025 10 16.09344 0 0
11:55 am 11:55 Sunny 39 4.1 24 -4.6 54 54 W 10 17 30.27 1025 10 16.09344 0 0
12:15 pm 12:15 Sunny 41 5.1 22 -5.7 46 46 W 10 17 30.24 1024 10 16.09344 0 0
12:35 pm 12:35 Sunny 43 5.9 21 -6 42 42 W 9 15 30.21 1023 10 16.09344 0 0
12:55 pm 12:55 Sunny 43 6.3 19 -7.1 38 38 W 9 15 30.21 1023 10 16.09344 0 0
1:15 pm 13:15 Sunny 44 6.6 18 -8 35 35 W 12 19 30.18 1022 10 16.09344 0 0
1:35 pm 13:35 Sunny 44 6.6 17 -8.2 34 34 W 8 13 30.18 1022 10 16.09344 0 0
1:55 pm 13:55 Sunny 44 6.9 17 -8.3 33 33 WSW 6 9 30.18 1022 10 16.09344 0 0
2:15 pm 14:15 Sunny 45 7 16 -8.8 32 32 W 9 15 30.18 1022 10 16.09344 0 0
2:35 pm 14:35 Sunny 45 7.1 17 -8.6 32 32 W 7 11 30.18 1022 10 16.09344 0 0
2:55 pm 14:55 Sunny 45 7.2 17 -8.3 33 33 W 5 7 30.18 1022 10 16.09344 0 0
3:15 pm 15:15 Sunny 45 7 17 -8.3 33 33 WSW 7 11 30.18 1022 10 16.09344 0 0
3:35 pm 15:35 Sunny 45 7.1 17 -8.2 33 33 WSW 7 11 30.18 1022 10 16.09344 0 0
3:55 pm 15:55 Sunny 44 6.7 19 -7.3 36 36 SW 10 17 30.18 1022 10 16.09344 0 0
4:15 pm 16:15 Sunny 43 6.2 19 -7.2 38 38 SW 7 11 30.18 1022 10 16.09344 0 0
4:35 pm 16:35 Sunny 42 5.4 20 -6.4 43 43 SSW 8 13 30.18 1022 10 16.09344 0 0
4:55 pm 16:55 Sunny 40 4.3 26 -3.3 58 58 SSW 8 13 30.21 1023 10 16.09344 0 0
5:15 pm 17:15 Sunny 36 2 26 -3.4 68 68 S 6 9 30.18 1022 10 16.09344 0 0
5:35 pm 17:35 Clear 34 1.3 26 -3.3 72 72 SW 8 13 30.24 1024 10 16.09344 0 0
5:55 pm 17:55 Clear 33 0.8 26 -3.5 73 73 SW 7 11 30.24 1024 10 16.09344 0 0
6:15 pm 18:15 Clear 32 0 25 -3.7 76 76 SSW 7 11 30.24 1024 10 16.09344 0 0
6:35 pm 18:35 Clear 30 -1.2 24 -4.3 80 80 SSW 6 9 30.21 1023 10 16.09344 0 0
6:55 pm 18:55 Clear 29 -1.4 24 -4.5 80 80 SSW 3 6 30.21 1023 10 16.09344 0 0
7:15 pm 19:15 Clear 30 -1.3 25 -4.1 81 81 SSW 7 11 30.21 1023 10 16.09344 0 0
7:35 pm 19:35 Clear 31 -0.8 24 -4.3 77 77 SW 5 7 30.21 1023 10 16.09344 0 0
7:55 pm 19:55 Clear 30 -1.3 24 -4.6 79 79 SW 3 6 30.21 1023 10 16.09344 0 0
8:15 pm 20:15 Clear 29 -1.7 24 -4.5 81 81 SW 3 6 30.24 1024 10 16.09344 0 0
8:35 pm 20:35 Clear 28 -2 24 -4.7 82 82 Calm 30.24 1024 10 16.09344 0 0
8:55 pm 20:55 Clear 28 -2.3 22 -5.3 80 80 SW 5 7 30.24 1024 10 16.09344 0 0
9:15 pm 21:15 Clear 28 -2.2 23 -5.2 80 80 Calm 30.24 1024 10 16.09344 0 0
9:35 pm 21:35 Clear 28 -2.4 23 -5.1 82 82 Calm 30.24 1024 10 16.09344 0 0
9:55 pm 21:55 Clear 27 -2.7 23 -4.8 86 86 Calm 30.24 1024 10 16.09344 0 0
10:15 pm 22:15 Clear 27 -3 23 -5.1 86 86 E 3 6 30.24 1024 10 16.09344 0 0
10:35 pm 22:35 Clear 26 -3.3 23 -5.2 87 87 E 3 6 30.24 1024 10 16.09344 0 0
10:55 pm 22:55 Clear 27 -2.7 24 -4.6 87 87 E 3 6 30.24 1024 10 16.09344 0 0
11:15 pm 23:15 Clear 27 -3 23 -5.1 86 86 Calm 30.24 1024 10 16.09344 0 0
11:35 pm 23:35 Clear 27 -2.7 23 -4.9 85 85 Calm 30.24 1024 10 16.09344 0 0
11:55 pm 23:55 Clear 28 -2.2 23 -4.8 83 83 Calm 30.21 1023 10 16.09344 0 0

Powered by AerisWeather